Hourly Data Report for September 08, 2017

All times are specified in Local Standard Time (LST). Add 1 hour to adjust for Daylight Saving Time where and when it is observed.

POND INLET A
NUNAVUT

72°41'22.000" N
77°58'08.000" W
61.60 m
2403206
71095
YIO

Download Data

Hourly Data (September 2017)
Hourly Data Report for September 8, 2017
Temp Definition
°C
Dew Point Temp Definition
°C
Rel Hum Definition
%
Wind Dir Definition
10's deg

Wind Spd Definition
km/h
Visibility Definition
km
Stn Press Definition
kPa
Hmdx Definition


Wind Chill Definition


Weather Definition


TIME
00:00 Legend Double Dagger -1.1 -3.8 82 LegendMM 4 16.1 99.68   -2 Snow
01:00 Legend Double Dagger -0.6 -3.1 83 20 13 3.6 99.59   -5 Snow
02:00 Legend Double Dagger -0.9 -2.5 89 10 8 9.7 99.47   -4 Snow
03:00 Legend Double Dagger -1.3 -1.9 96 6 15 11.3 99.34   -6 Snow
04:00 Legend Double Dagger -1.2 -1.8 96 5 24 16.1 99.22   -7 Snow
05:00 Legend Double Dagger -0.7 -2.4 88 7 22 16.1 99.12   -6 Snow
06:00 Legend Double Dagger 0.5 -2.8 79 18 21 16.1 99.00     Snow
07:00 Legend Double Dagger 0.9 -4.2 69 16 26 16.1 98.87     LegendNANA
08:00 Legend Double Dagger 1.2 -4.1 68 16 32 16.1 98.74     LegendNANA
09:00 Legend Double Dagger -2.0 -4.0 86 28 28 2.4 98.72   -9 Snow
10:00 Legend Double Dagger -2.8 -4.1 91 26 26 1.6 98.65   -10 Snow
11:00 Legend Double Dagger -3.4 -4.2 94 24 22 1.2 98.61   -10 Snow
12:00 Legend Double Dagger -3.1 -4.7 89 20 13 16.1 98.59   -8 Snow
13:00 Legend Double Dagger -1.6 -8.5 59 27 17 16.1 98.54   -7 LegendNANA
14:00 Legend Double Dagger -1.8 -8.4 61 20 9 16.1 98.47   -5 LegendNANA
15:00 Legend Double Dagger -4.1 -9.4 67 18 13 16.1 98.40   -9 LegendNANA
16:00 Legend Double Dagger -6.0 -10.4 71 14 15 16.1 98.32   -12 LegendNANA
17:00 Legend Double Dagger -6.4 -10.0 76 14 15 16.1 98.23   -12 Snow
18:00 Legend Double Dagger -4.8 -8.1 78 19 9 0.8 98.18   -9 Moderate Snow
19:00 Legend Double Dagger -4.3 -6.8 83 26 11 16.1 98.07   -9 Snow
20:00 Legend Double Dagger -4.5 -6.8 84 22 13 16.1 97.98   -10 Snow
21:00 Legend Double Dagger -3.8 -6.9 79 27 18 16.1 97.87   -10 Snow
22:00 Legend Double Dagger -3.9 -7.4 77 27 15 16.1 97.79   -9 Snow
23:00 Legend Double Dagger -4.0 -7.1 79 27 21 16.1 97.68   -10 Snow

Notes on Data Quality.

Legend

  • E = Estimated
  • M = Missing
  • NA = Not Available
  • ‡ = Partner data that is not subject to review by the National Climate Archives
Date modified: